Location: Poprad
(49.0500°N, 20.3000°E)
Time: 00:51:43
(UTC+01:00)

ISS - Pass Details

Date: 26 January 2021
Orbit: 417 x 422 km, 51.6° (Epoch: 06 March)

Event Time Altitude Azimuth Distance (km) Brightness Sun altitude
Rises 18:47:03 0° 278° (W) 2,373 1.5 -22.9°
Reaches altitude 10° 18:49:11 10° 283° (WNW) 1,509 0.1 -23.3°
Enters shadow 18:51:32 37° 309° (NW) 674 -2.4 -23.6°
